Flag for U.S.A. Weather past 2 weeks in Fayetteville, North Carolina, U.S.A.

Now
50 °F

More clouds than sun.


Feels Like: 44 °F
Forecast: 38 / 63 °F
Wind: 16 mph from Southwest

Location: Fayetteville Regional Airport

Current Time: Mar 30, 2015 at 1:56:18 PM

Latest Report: Mar 30, 2015 at 12:53 PM


Visibility: 10 mi

Pressure: 30.05 "Hg

Humidity: 80%

Dew point: 44 °F

Location of FayettevilleLocation

Historic Weather in Fayetteville — Graph

°F

Fayetteville temperature yesterday

Maximum temperature yesterday: 52 °F (at 5:53 PM)
Minimum temperature yesterday: 29 °F (at 3:53 AM)
Average temperature yesterday: 40 °F

Past Weeks' High & Low Weather Summary

 TemperatureHumidityPressure
High85 °F (Mar 17, 3:53 PM)100% (Mar 26, 1:53 AM)30.45 "Hg (Mar 26, 1:53 AM)
Low29 °F (Mar 29, 3:53 AM)17% (Mar 29, 3:53 PM)29.62 "Hg (Mar 27, 5:53 AM)
Average55 °F62%30.05 "Hg
* Reported Mar 15 11:53 AM — Mar 30 11:53 AM, Fayetteville, Weather by CustomWeather, © 2015

Note: Actual official high and low records may vary slightly from our data, if they occured in-between our weather recording intervals... More about our weather records

Advertising

Fayetteville weather history for previous 24 hours

 ConditionsComfort  
Time TempWeatherWind HumidityBarometerVisibility
11:53 AM
Mon, Mar 30
47 °FCloudy.14 mph86%30.08 "Hg10 mi
10:53 AM46 °FLight rain. Mostly cloudy.12 mph83%30.08 "Hg6 mi
9:53 AM48 °FOvercast.13 mph61%30.09 "Hg10 mi
8:53 AM46 °FOvercast.14 mph66%30.12 "Hg10 mi
7:53 AM43 °FPassing clouds.9 mph68%30.13 "Hg10 mi
6:53 AM40 °FClear.10 mph73%30.12 "Hg10 mi
5:53 AM40 °FPassing clouds.12 mph73%30.12 "Hg10 mi
4:53 AM40 °FClear.9 mph73%30.15 "Hg10 mi
3:53 AM40 °FClear.10 mph68%30.16 "Hg10 mi
2:53 AM39 °FClear.8 mph65%30.19 "Hg10 mi
1:53 AM39 °FClear.8 mph57%30.21 "Hg10 mi
12:53 AM40 °FClear.9 mph49%30.24 "Hg10 mi
11:53 PM
Sun, Mar 29
39 °FClear.7 mph48%30.26 "Hg10 mi
10:53 PM41 °FClear.6 mph43%30.27 "Hg10 mi
9:53 PM43 °FClear.8 mph38%30.27 "Hg10 mi
8:53 PM44 °FClear.7 mph40%30.28 "Hg10 mi
7:53 PM47 °FSunny.5 mph32%30.29 "Hg10 mi
6:53 PM51 °FSunny.7 mph20%30.29 "Hg10 mi
5:53 PM52 °FSunny.9 mph17%30.31 "Hg10 mi
4:53 PM51 °FSunny.No wind17%30.32 "Hg10 mi
3:53 PM51 °FSunny.7 mph17%30.34 "Hg10 mi
2:53 PM49 °FSunny.7 mph20%30.34 "Hg10 mi
1:53 PM47 °FSunny.6 mph20%30.38 "Hg10 mi
Weather by CustomWeather, © 2015

See weather overviewHow to use our weather pages